When you browse on this site, cookies collect data to enhance your experience and personalize the content and advertising you see.
Visit our Privacy Policy to learn more. By continuing to use the site, you agree to this use of cookies and data.
  • En España
  • Lista de países
  • Para 7 días
  • Temperatura del agua
  • El tiempo en el mapa
  • Informadores
  • user-avatar
    Iniciar sesión

    Tiempo cada hora Harare

    Hoy, 29 Febrero, Sábado

    Tiempo Temperatura Precipitaciones Viento Presión Humedad
    00:00 +18°C° 0 mm 3 mps 639 mmHg 77%
    01:00 +18°C° 0 mm 3 mps 639 mmHg 81%
    02:00 +18°C° 0 mm 2 mps 639 mmHg 86%
    03:00 +17°C° 0 mm 3 mps 638 mmHg 87%
    04:00 +17°C° 0 mm 3 mps 638 mmHg 87%
    05:00 +16°C° 0 mm 3 mps 638 mmHg 88%
    06:00 +17°C° 0 mm 4 mps 639 mmHg 84%
    07:00 +18°C° 0 mm 4 mps 640 mmHg 81%
    08:00 +19°C° 0 mm 5 mps 640 mmHg 77%
    09:00 +21°C° 0 mm 5 mps 641 mmHg 71%
    10:00 +22°C° 0 mm 4 mps 641 mmHg 66%
    11:00 +25°C° 0 mm 4 mps 641 mmHg 60%
    12:00 +25°C° 0.2 mm 4 mps 641 mmHg 60%
    13:00 +25°C° 0.2 mm 5 mps 640 mmHg 61%
    14:00 +25°C° 0.2 mm 5 mps 640 mmHg 61%
    15:00 +23°C° 0.1 mm 5 mps 639 mmHg 64%
    16:00 +22°C° 0.1 mm 5 mps 638 mmHg 68%
    17:00 +21°C° 0.1 mm 5 mps 638 mmHg 71%
    18:00 +20°C° 0 mm 5 mps 638 mmHg 74%
    19:00 +19°C° 0 mm 5 mps 638 mmHg 76%
    20:00 +17°C° 0 mm 5 mps 639 mmHg 79%
    21:00 +16°C° 0 mm 5 mps 639 mmHg 80%
    22:00 +17°C° 0 mm 4 mps 639 mmHg 81%
    23:00 +17°C° 0 mm 4 mps 639 mmHg 83%

    Mañana, 1 Marzo, Domingo

    Tiempo Temperatura Precipitaciones Viento Presión Humedad
    00:00 +17°C° 0 mm 4 mps 639 mmHg 83%
    01:00 +15°C° 0 mm 4 mps 639 mmHg 83%
    02:00 +15°C° 0 mm 4 mps 639 mmHg 83%
    03:00 +15°C° 0 mm 4 mps 638 mmHg 83%
    04:00 +15°C° 0 mm 4 mps 638 mmHg 83%
    05:00 +15°C° 0 mm 4 mps 638 mmHg 83%
    06:00 +15°C° 0 mm 4 mps 638 mmHg 81%
    07:00 +17°C° 0 mm 4 mps 639 mmHg 78%
    08:00 +18°C° 0 mm 4 mps 640 mmHg 76%
    09:00 +20°C° 0 mm 3 mps 640 mmHg 69%
    10:00 +22°C° 0 mm 3 mps 641 mmHg 63%
    11:00 +25°C° 0 mm 3 mps 641 mmHg 56%
    12:00 +25°C° 0.1 mm 2 mps 641 mmHg 56%
    13:00 +25°C° 0.1 mm 2 mps 640 mmHg 56%
    14:00 +25°C° 0.1 mm 2 mps 640 mmHg 55%
    15:00 +25°C° 0.2 mm 2 mps 639 mmHg 59%
    16:00 +24°C° 0.2 mm 2 mps 638 mmHg 63%
    17:00 +22°C° 0.2 mm 3 mps 638 mmHg 67%
    18:00 +20°C° 0 mm 3 mps 638 mmHg 72%
    19:00 +18°C° 0 mm 3 mps 638 mmHg 77%
    20:00 +16°C° 0 mm 3 mps 638 mmHg 82%
    21:00 +16°C° 0 mm 3 mps 638 mmHg 83%
    22:00 +15°C° 0 mm 2 mps 638 mmHg 85%
    23:00 +15°C° 0 mm 2 mps 638 mmHg 87%

    Pasado mañana, 2 Marzo, Lunes

    Tiempo Temperatura Precipitaciones Viento Presión Humedad
    00:00 +15°C° 0 mm 2 mps 638 mmHg 88%
    01:00 +15°C° 0 mm 2 mps 638 mmHg 89%
    02:00 +14°C° 0 mm 2 mps 638 mmHg 89%
    03:00 +14°C° 0 mm 1 mps 637 mmHg 90%
    04:00 +14°C° 0 mm 1 mps 637 mmHg 91%
    05:00 +13°C° 0 mm 1 mps 637 mmHg 92%
    06:00 +15°C° 0 mm 1 mps 638 mmHg 85%
    07:00 +18°C° 0 mm 1 mps 639 mmHg 78%
    08:00 +18°C° 0 mm 0 mps 640 mmHg 71%
    09:00 +22°C° 0 mm 1 mps 640 mmHg 65%
    10:00 +24°C° 0 mm 1 mps 641 mmHg 58%
    11:00 +26°C° 0 mm 1 mps 641 mmHg 52%
    12:00 +26°C° 0.1 mm 1 mps 641 mmHg 53%
    13:00 +26°C° 0.1 mm 2 mps 640 mmHg 54%
    14:00 +25°C° 0.1 mm 2 mps 639 mmHg 55%
    15:00 +25°C° 0.3 mm 2 mps 639 mmHg 60%
    16:00 +24°C° 0.3 mm 2 mps 638 mmHg 64%
    17:00 +23°C° 0.3 mm 2 mps 638 mmHg 69%
    18:00 +21°C° 0.2 mm 2 mps 638 mmHg 74%
    19:00 +20°C° 0.2 mm 2 mps 638 mmHg 79%
    20:00 +18°C° 0.2 mm 2 mps 638 mmHg 84%
    21:00 +18°C° 0 mm 2 mps 639 mmHg 88%
    22:00 +17°C° 0 mm 2 mps 639 mmHg 91%
    23:00 +17°C° 0 mm 2 mps 639 mmHg 95%

    3 Marzo, Martes

    Tiempo Temperatura Precipitaciones Viento Presión Humedad
    00:00 +16°C° 0 mm 1 mps 639 mmHg 95%
    01:00 +16°C° 0 mm 1 mps 639 mmHg 94%
    02:00 +16°C° 0 mm 1 mps 638 mmHg 94%
    03:00 +16°C° 0 mm 1 mps 638 mmHg 95%
    04:00 +16°C° 0 mm 1 mps 638 mmHg 95%
    05:00 +15°C° 0 mm 1 mps 638 mmHg 95%
    06:00 +16°C° 0 mm 1 mps 639 mmHg 92%
    07:00 +18°C° 0 mm 1 mps 639 mmHg 88%
    08:00 +19°C° 0 mm 1 mps 640 mmHg 85%
    09:00 +22°C° 0 mm 1 mps 641 mmHg 74%
    10:00 +24°C° 0 mm 1 mps 641 mmHg 64%
    11:00 +26°C° 0 mm 1 mps 642 mmHg 54%
    12:00 +26°C° 0.1 mm 1 mps 641 mmHg 54%
    13:00 +26°C° 0.1 mm 1 mps 641 mmHg 53%
    14:00 +26°C° 0.1 mm 1 mps 640 mmHg 52%
    15:00 +25°C° 0.5 mm 1 mps 640 mmHg 57%
    16:00 +25°C° 0.5 mm 2 mps 639 mmHg 61%
    17:00 +24°C° 0.5 mm 2 mps 639 mmHg 66%
    18:00 +21°C° 0.2 mm 2 mps 639 mmHg 72%
    19:00 +20°C° 0.2 mm 2 mps 639 mmHg 77%
    20:00 +18°C° 0.2 mm 2 mps 640 mmHg 83%
    21:00 +17°C° 0.1 mm 2 mps 640 mmHg 85%
    22:00 +17°C° 0.1 mm 2 mps 640 mmHg 88%
    23:00 +17°C° 0.1 mm 2 mps 640 mmHg 91%

    4 Marzo, Miércoles

    Tiempo Temperatura Precipitaciones Viento Presión Humedad
    00:00 +16°C° 0 mm 2 mps 640 mmHg 92%
    01:00 +16°C° 0 mm 1 mps 639 mmHg 93%
    02:00 +16°C° 0 mm 1 mps 639 mmHg 94%
    03:00 +15°C° 0 mm 1 mps 639 mmHg 93%
    04:00 +15°C° 0 mm 1 mps 639 mmHg 93%
    05:00 +15°C° 0 mm 1 mps 639 mmHg 92%
    06:00 +16°C° 0 mm 2 mps 640 mmHg 87%
    07:00 +17°C° 0 mm 2 mps 640 mmHg 83%
    08:00 +18°C° 0 mm 3 mps 641 mmHg 78%
    09:00 +20°C° 0 mm 3 mps 641 mmHg 71%
    10:00 +21°C° 0 mm 3 mps 642 mmHg 63%
    11:00 +24°C° 0 mm 3 mps 642 mmHg 55%
    12:00 +24°C° 0.3 mm 3 mps 642 mmHg 56%
    13:00 +24°C° 0.3 mm 3 mps 641 mmHg 58%
    14:00 +24°C° 0.3 mm 3 mps 640 mmHg 60%
    15:00 +24°C° 0.4 mm 3 mps 640 mmHg 60%
    16:00 +24°C° 0.4 mm 3 mps 640 mmHg 60%
    17:00 +22°C° 0.4 mm 3 mps 639 mmHg 61%
    18:00 +20°C° 0 mm 3 mps 639 mmHg 67%
    19:00 +19°C° 0 mm 2 mps 639 mmHg 72%
    20:00 +17°C° 0 mm 2 mps 639 mmHg 78%
    21:00 +16°C° 0 mm 2 mps 639 mmHg 75%
    22:00 +15°C° 0 mm 1 mps 639 mmHg 71%
    23:00 +15°C° 0 mm 1 mps 640 mmHg 67%

    5 Marzo, Jueves

    Tiempo Temperatura Precipitaciones Viento Presión Humedad
    00:00 +14°C° 0 mm 1 mps 639 mmHg 70%
    01:00 +14°C° 0 mm 1 mps 639 mmHg 73%
    02:00 +13°C° 0 mm 1 mps 638 mmHg 76%
    03:00 +13°C° 0 mm 2 mps 638 mmHg 80%
    04:00 +13°C° 0 mm 2 mps 638 mmHg 83%
    05:00 +13°C° 0 mm 2 mps 638 mmHg 87%
    06:00 +14°C° 0 mm 2 mps 639 mmHg 80%
    07:00 +16°C° 0 mm 3 mps 640 mmHg 74%
    08:00 +17°C° 0 mm 3 mps 640 mmHg 67%
    09:00 +20°C° 0 mm 3 mps 641 mmHg 58%
    10:00 +23°C° 0 mm 2 mps 641 mmHg 50%
    11:00 +25°C° 0 mm 2 mps 642 mmHg 41%
    12:00 +26°C° 0 mm 2 mps 641 mmHg 39%
    13:00 +27°C° 0 mm 2 mps 641 mmHg 37%
    14:00 +28°C° 0 mm 1 mps 640 mmHg 36%
    15:00 +27°C° 0 mm 2 mps 640 mmHg 42%
    16:00 +25°C° 0 mm 2 mps 639 mmHg 47%
    17:00 +24°C° 0 mm 2 mps 638 mmHg 53%
    18:00 +21°C° 0 mm 2 mps 638 mmHg 56%
    19:00 +20°C° 0 mm 3 mps 638 mmHg 59%
    20:00 +18°C° 0 mm 3 mps 638 mmHg 61%
    21:00 +17°C° 0 mm 3 mps 638 mmHg 64%
    22:00 +16°C° 0 mm 2 mps 639 mmHg 66%
    23:00 +15°C° 0 mm 2 mps 639 mmHg 68%
    Mostrar más